TimeMDT,TemperatureF,Dew PointF,Humidity,Sea Level PressureIn,VisibilityMPH,Wind Direction,Wind SpeedMPH,Gust SpeedMPH,PrecipitationIn,Events,Conditions,WindDirDegrees,DateUTC
12:56 AM,30.0,23.0,75,30.24,10.0,East,4.6,-,N/A,,Clear,90,2013-10-26 06:56:00
1:56 AM,27.1,22.1,81,30.26,10.0,ENE,3.5,-,N/A,,Clear,70,2013-10-26 07:56:00
2:56 AM,27.1,22.1,81,30.26,9.0,Calm,Calm,-,N/A,,Clear,0,2013-10-26 08:56:00
3:56 AM,29.1,23.0,78,30.25,10.0,ESE,3.5,-,N/A,,Clear,120,2013-10-26 09:56:00
4:56 AM,29.1,21.0,72,30.25,10.0,Calm,Calm,-,N/A,,Clear,0,2013-10-26 10:56:00
5:56 AM,28.0,21.0,75,30.30,10.0,Calm,Calm,-,N/A,,Clear,0,2013-10-26 11:56:00
6:56 AM,27.1,22.1,81,30.36,10.0,Calm,Calm,-,N/A,,Clear,0,2013-10-26 12:56:00
7:56 AM,25.2,20.1,81,30.37,9.0,Calm,Calm,-,N/A,,Clear,0,2013-10-26 13:56:00
8:56 AM,34.0,26.1,73,30.36,8.0,Calm,Calm,-,N/A,,Clear,0,2013-10-26 14:56:00
9:56 AM,41.0,27.1,58,30.37,8.0,West,4.6,-,N/A,,Clear,260,2013-10-26 15:56:00
10:56 AM,45.0,28.0,52,30.35,9.0,Calm,Calm,-,N/A,,Clear,0,2013-10-26 16:56:00
11:56 AM,54.9,27.1,34,30.31,10.0,Calm,Calm,-,N/A,,Clear,0,2013-10-26 17:56:00
12:56 PM,57.9,25.2,28,30.27,9.0,Calm,Calm,-,N/A,,Clear,0,2013-10-26 18:56:00
1:56 PM,59.9,25.2,26,30.26,9.0,WNW,6.9,-,N/A,,Clear,290,2013-10-26 19:56:00
2:56 PM,61.9,27.1,27,30.23,10.0,NNW,10.4,-,N/A,,Clear,340,2013-10-26 20:56:00
3:56 PM,61.0,29.1,30,30.22,8.0,NNW,8.1,-,N/A,,Clear,330,2013-10-26 21:56:00
4:56 PM,61.0,27.1,28,30.20,9.0,NNE,9.2,-,N/A,,Clear,20,2013-10-26 22:56:00
5:56 PM,56.8,25.2,30,30.20,8.0,Variable,4.6,-,N/A,,Clear,0,2013-10-26 23:56:00
6:56 PM,48.9,24.1,38,30.25,10.0,Calm,Calm,-,N/A,,Clear,0,2013-10-27 00:56:00
7:56 PM,36.0,26.1,67,30.30,9.0,East,9.2,-,N/A,,Clear,80,2013-10-27 01:56:00
8:56 PM,34.9,26.1,70,30.25,10.0,East,11.5,-,N/A,,Clear,80,2013-10-27 02:56:00
9:56 PM,34.9,24.1,65,30.22,10.0,Variable,3.5,-,N/A,,Clear,0,2013-10-27 03:56:00
10:56 PM,34.0,22.1,62,30.18,10.0,Calm,Calm,-,N/A,,Clear,0,2013-10-27 04:56:00
11:56 PM,28.0,21.0,75,30.14,10.0,East,3.5,-,N/A,,Clear,90,2013-10-27 05:56:00